Location: Unspecified
(33.6682°S, 0.0000°E)
Time: 11:00:51
(UTC+00:00)

Vanguard 2 Rocket - Pass Details

Date: 18 June 2019
Orbit: 554 x 3326 km, 32.9° (Epoch: 22 July)

Event Time Altitude Azimuth Distance (km) Brightness Sun altitude
Rises 08:31:49 0° 315° (NW) 6,779 11.3 14.3°
Reaches altitude 10° 08:37:14 10° 321° (NW) 5,399 10.9 15.1°
Maximum altitude 08:50:21 40° 23° (NNE) 2,512 10.4 17.1°
Drops below altitude 10° 08:58:17 10° 89° (E) 3,299 10.6 18.3°
Sets 09:00:45 0° 97° (E) 3,978 10.7 18.6°
